Weather in Serkovo

Russia / Kostroma Oblast     57°28′07″N   41°30′46″E
temp.,
°C
wind,
m/s
gust,
m/s
humid.,
%
clouds,
%
prec.,
mm/h
press.,
hPa
HPBL,
m
20 june, sun
sun2000:00+18w34914 0.0 102269
03:00+17w33915 0.0 102247
06:00+19w25825 0.0 1022143
09:00+24wsw34655 0.0 1022420
12:00+27wsw44562 0.0 1021980
15:00+28wsw44514 0.0 10211200
18:00+27w25640 0.0 1020668
21:00+21sw33811 0.0 102028
21 june, mon
mon2100:00+19sw23820 0.0 102028
03:00+18sw34860 0.0 102148
06:00+20wsw36845 0.0 1021170
09:00+25wsw34695 0.0 1021513
12:00+28sw33575 0.0 10211087
15:00+29wsw33515 0.0 10201553
18:00+28wnw23626 0.0 1020735
21:00+22sw3482100 0.0 102058
22 june, tue
tue2200:00+20wsw227960 0.0 102116
03:00+18wsw338092 0.0 102144
06:00+21sw227779 0.0 102291
09:00+24sw2268100 0.0 1022373
12:00+26sw3362100 0.0 1022732
15:00+28ssw2351100 0.0 10211347
18:00+28w1261100 0.0 10201080
21:00+23ssw117172 0.0 102011
23 june, wed
wed2300:00+21ssw22752 0.0 102011
03:00+20sw33885 0.0 102144
06:00+22wsw24854 0.3 1021141
09:00+26w33671 0.3 1021474
12:00+29wsw34545 0.0 1021992
15:00+31w34495 0.0 10201460
18:00+30w24615 0.0 1020455
21:00+24wsw23740 0.0 101922
24 june, thu
thu2400:00+22wsw23746 0.0 102028
03:00+20wsw227918 0.0 102027
06:00+23wsw268052 0.0 1020157
09:00+27w346262 0.0 1020408
12:00+31w46525 0.0 10191078
15:00+31w46485 0.0 10191688
18:00+30wsw36615 0.0 1017374
21:00+25wsw35750 0.0 101765